STARLINK-31876, 59938

Orbit data source: Space-Track

STARLINK-31876, 59938 is a payload satellite owned by SpaceX/Seattle (US) in LEO that was launched on Sat, 01 Jun 2024 UTC via an FALCON 9 launch vehicle from the Air Force Eastern Test Range (AFETR). Payload-class satellites include a variety of spacecraft equipped with specific instruments for various scientific and technological missions. These include communications satellites like Starlink; space stations such as the ISS; scientific satellites like the Hubble; Earth observation satellites from companies like Planet Labs, Umbra, and HawkEye 360; GPS; miniature CubeSats for education and research; and military/defense satellites.

Loading next visibility...
Identifier
59938, 2024-106S
Orbit
LEO
Country
Flag of USUS
Related business
Manufacturer
SpaceX/Seattle
Mission
Operational Commercial Communications
Bus & Motor
STARLINK V2M, Unknown motor
Mass
730 kg wet, ~700 kg dry
Launch date (UTC)
2024-06-01 (2 years ago)
Launch vehicle
FALCON 9
Launch site
Air Force Eastern Test Range (AFETR)
Object type
Payload
Rocket body
Debris
Shape & HBR
Box + 2 Pan, 17.7 m
Radar Cross Section
33.884 m², Large (>1 m²)

Expand to show TLE details & history
Last TLE update: 18 hours ago

TLE from 18 hours ago
0 STARLINK-31876
1 59938U 24106S   25347.31316145  .00001009  00000-0  46218-4 0  9997
2 59938  43.0039 100.2428 0001300 265.4109  94.6595 15.27567482 87328
Epoch: 2025-12-13T07:30Z
TLE epoch observation values (Epoch: 2025-12-13T07:30:57.149Z)
Latitude
0.00004°
Longitude
-94.7375°
Altitude
482.935 km
Speed
7.626 km/s
True Right ascension
06h 40m 58s
True Declination
0° 00' 00"
Sunlit
Object was in full shadow at epoch
Visualization orbit readout
Latitude
Unknown
Longitude
Unknown
Altitude
Unknown
Speed
Unknown
Apparent Right ascension
Unknown
Apparent Declination
Unknown
Sunlit
N/A
Visualization observer readout
Local Sidereal Time
23:33:55
Azimuth
Unknown
Elevation
Unknown
Doppler factor
Unknown
Orbital elements
Apogee altitude
485.923 km
Perigee altitude
484.139 km
Semi-major axis
6,863.168 km
Eccentricity
0.00013
Inclination
43.0039°
RAAN
100.2428°
Arg. of periapsis
265.4109°
True anomaly
94.67435°
Mean anomaly
94.6595°
Eccentric anomaly
94.66692°
Mean motion
3.8173 °/min
Orbital period
94.31 mins
BSTAR
0.000046218
Loading maneuver chart data...
Computing Atmospheric mass density...
Loading historical data...
Loading historical data...
Loading historical data...
Loading historical data...
Loading historical data...
Loading historical data...
Loading historical data...

Documentation

Showing up to 5 results
|